Temp
68 71 74 74 74 74 74 74 74 74 75 75 75 75 75 75 75 75 75 75 76 76 76 76 76 76 75 75 74 74 74 74 74 74 75 75 76 75 74 74 74 72 74
71 72 73 74 74 74 74 74 74 74 75 75 75 74 74 74 74 74 75 75 76 76 76 76 75 75 74 74 73 73 73 73 73 73 74 74 74 74 74 74 74 74 74
71 72 73 74 74 74 74 74 74 75 75 75 75 74 74 74 74 75 75 75 76 76 76 76 75 74 73 72 72 72 72 72 72 73 73 71 71 73 73 73 73 73 74
72 72 74 74 73 74 74 74 74 75 75 75 75 74 74 74 75 75 75 75 76 76 76 75 74 72 72 71 71 72 72 71 70 70 68 68 71 72 73 73 73 73 73
71 72 74 72 73 74 74 74 74 74 74 74 74 74 74 75 75 75 74 74 75 76 76 74 72 71 70 70 71 71 70 70 69 68 66 64 65 71 71 72 72 72 72
70 71 72 71 72 73 74 74 74 74 73 73 73 74 74 75 75 74 73 74 76 75 74 72 71 70 69 69 69 69 69 68 67 64 63 67 65 71 72 72 72 71 70
70 70 70 70 71 73 74 74 73 73 72 73 73 73 74 74 74 73 73 74 73 73 72 71 70 69 69 69 69 68 67 67 63 62 62 61 65 71 72 72 70 70 69
69 69 70 71 71 72 73 72 72 72 72 72 72 72 73 73 72 72 72 72 71 71 70 69 69 69 69 69 68 67 66 66 64 62 60 61 69 71 71 70 69 69 69
68 68 69 70 71 71 70 70 70 71 71 71 71 71 71 70 70 70 70 70 70 69 69 69 68 68 68 67 66 65 65 65 57 61 64 60 70 71 70 69 69 68 68
66 67 68 69 70 70 69 69 69 69 69 69 70 69 69 69 69 69 69 69 69 69 69 68 68 67 67 66 65 64 64 62 56 58 58 63 69 70 70 68 68 67 67
65 66 67 69 69 68 68 69 69 69 69 69 69 68 68 68 65 67 66 68 68 68 68 68 67 66 65 65 64 63 61 56 56 56 57 67 69 70 68 68 67 66 66
64 65 67 67 67 67 69 67 66 68 69 68 68 68 66 62 61 63 65 67 68 67 67 67 66 65 62 60 61 60 55 54 54 54 57 67 69 69 68 67 66 65 65
66 66 66 67 66 67 67 65 66 69 68 65 66 65 61 60 60 59 59 60 58 64 57 59 58 55 54 54 53 53 52 52 51 53 61 66 68 69 68 66 65 65 64
67 67 66 66 66 67 67 66 65 65 64 64 65 63 60 58 56 55 56 55 54 53 53 53 52 52 53 53 53 52 51 50 50 51 58 64 67 68 68 66 65 64 64
66 67 67 67 67 67 67 67 65 65 64 65 64 63 60 58 56 55 54 53 52 51 52 52 52 53 53 53 52 52 50 49 50 50 51 62 64 67 67 66 65 64 63
67 67 68 68 68 68 68 67 66 66 65 65 64 63 61 59 57 55 53 52 51 51 51 52 52 52 52 53 51 51 50 49 48 49 50 54 62 64 65 64 64 64 63
68 68 67 69 69 68 66 66 66 65 66 65 64 63 61 58 56 54 53 51 51 51 51 52 51 50 51 53 51 50 50 48 48 48 48 49 53 60 61 62 62 63 62
69 68 69 69 67 67 66 66 67 67 66 66 64 62 60 58 56 53 52 52 50 51 51 51 50 49 50 51 49 49 49 49 47 47 47 47 48 51 57 59 59 60 61
69 69 69 69 68 67 66 66 66 66 66 66 64 63 61 59 57 55 55 53 52 51 51 53 48 51 49 48 49 46 46 46 47 50 47 47 48 47 48 57 57 57 58
68 69 70 70 69 67 66 66 65 65 65 65 64 63 62 60 57 57 55 53 53 52 49 49 50 48 49 49 54 47 45 44 45 45 46 48 46 47 47 47 47 50 56
67 68 69 69 68 66 65 63 64 63 65 65 64 63 61 61 59 58 56 54 54 54 53 51 48 49 45 47 44 42 43 44 44 44 45 45 46 46 45 45 44 44 48
65 66 68 69 68 67 67 67 66 66 64 65 63 62 61 61 60 59 57 54 54 53 50 50 50 46 44 49 44 42 40 43 45 45 44 46 43 45 45 45 44 43 41
58 64 67 68 68 67 68 66 63 62 57 58 59 59 59 60 59 59 57 56 54 54 52 51 50 52 45 46 52 44 39 38 41 42 45 42 42 42 43 44 43 43 41
57 56 65 68 68 67 67 65 62 61 58 58 59 59 59 58 58 57 57 56 55 54 52 52 51 50 49 49 46 48 44 44 39 37 43 43 41 42 42 42 41 41 40
55 55 55 61 65 66 65 65 62 61 62 61 58 57 56 56 57 56 56 55 54 53 53 52 50 47 48 51 51 44 42 42 43 40 36 39 41 42 42 42 40 38 39
51 55 56 56 57 61 64 64 61 60 61 57 55 53 54 54 54 54 55 53 53 53 51 51 51 47 44 46 44 44 44 43 41 40 37 38 39 39 42 41 41 39 38
MSLP
1008.19 1008.01 1009.16 1009.95 1010.24 1010.44 1010.86 1011.21 1011.47 1011.65 1012.02 1012.28 1012.42 1012.75 1013.16 1013.54 1013.78 1014.11 1014.40 1014.54 1014.74 1014.84 1015.15 1015.44 1015.65 1015.76 1015.86 1016.02 1016.09 1016.12 1016.17 1016.28 1016.33 1016.38 1016.47 1016.55 1016.68 1016.74 1016.80 1016.73 1016.71 1016.68 1016.66
1007.99 1008.32 1008.51 1009.43 1009.93 1010.47 1010.99 1011.18 1011.38 1011.62 1012.02 1012.41 1012.67 1012.98 1013.39 1013.70 1014.00 1014.23 1014.37 1014.60 1014.81 1015.00 1015.26 1015.58 1015.80 1015.95 1016.11 1016.29 1016.33 1016.35 1016.40 1016.51 1016.62 1016.71 1016.79 1016.82 1017.03 1017.10 1017.08 1017.02 1016.97 1016.82 1016.85
1007.99 1008.82 1009.15 1009.56 1009.97 1010.33 1011.04 1011.39 1011.52 1011.81 1012.11 1012.49 1012.88 1013.18 1013.55 1013.77 1014.03 1014.29 1014.48 1014.70 1014.93 1015.15 1015.35 1015.64 1015.89 1016.13 1016.35 1016.52 1016.58 1016.54 1016.55 1016.73 1016.95 1017.03 1017.28 1017.30 1017.51 1017.53 1017.43 1017.23 1017.09 1017.03 1016.99
1008.05 1008.78 1009.25 1009.92 1010.03 1010.44 1010.91 1011.26 1011.56 1012.00 1012.23 1012.59 1012.93 1013.33 1013.67 1013.87 1014.06 1014.39 1014.62 1014.84 1015.07 1015.23 1015.38 1015.66 1016.08 1016.34 1016.67 1016.72 1016.73 1016.75 1016.54 1017.08 1017.34 1017.50 1017.79 1017.88 1017.95 1017.96 1017.82 1017.66 1017.42 1017.34 1017.32
1007.81 1008.48 1009.42 1010.14 1010.48 1010.97 1011.28 1011.27 1011.50 1011.94 1012.41 1012.75 1013.00 1013.37 1013.70 1014.03 1014.20 1014.48 1014.71 1014.90 1015.14 1015.39 1015.63 1015.95 1016.29 1016.57 1016.86 1017.04 1016.67 1017.08 1017.16 1017.40 1017.67 1018.10 1018.31 1018.37 1018.34 1018.40 1018.32 1018.08 1017.83 1017.80 1017.75
1008.53 1008.68 1009.44 1010.32 1010.56 1010.94 1011.60 1011.67 1011.73 1012.00 1012.49 1012.86 1013.15 1013.37 1013.63 1014.04 1014.31 1014.62 1014.85 1015.02 1015.21 1015.66 1015.99 1016.29 1016.43 1016.78 1016.96 1017.35 1017.34 1017.43 1017.71 1017.96 1018.27 1018.50 1018.69 1018.72 1018.82 1018.76 1018.49 1018.40 1018.28 1018.31 1018.32
1008.04 1008.77 1009.63 1010.13 1010.51 1010.89 1011.55 1011.81 1011.86 1012.08 1012.61 1013.00 1013.22 1013.47 1013.72 1014.05 1014.44 1014.75 1015.02 1015.30 1015.61 1016.01 1016.42 1016.76 1016.69 1016.93 1017.02 1017.49 1018.01 1017.97 1018.15 1018.55 1018.83 1019.06 1019.07 1019.11 1019.01 1018.91 1018.79 1018.72 1018.85 1018.91 1018.98
1008.55 1008.88 1009.74 1010.32 1010.50 1010.80 1011.37 1011.86 1012.13 1012.27 1012.62 1013.13 1013.41 1013.54 1013.81 1014.20 1014.53 1014.78 1015.17 1015.57 1015.87 1016.17 1016.53 1016.99 1017.18 1017.28 1017.23 1017.61 1018.26 1018.61 1018.67 1018.92 1019.17 1019.27 1019.34 1019.35 1019.38 1019.21 1019.29 1019.40 1019.44 1019.57 1019.54
1009.24 1009.35 1009.61 1010.08 1010.66 1010.93 1011.36 1011.72 1012.16 1012.36 1012.60 1013.08 1013.56 1013.79 1014.00 1014.32 1014.62 1014.88 1015.17 1015.67 1016.07 1016.20 1016.48 1016.85 1017.36 1017.63 1017.73 1018.10 1018.52 1018.88 1019.07 1019.21 1019.46 1019.58 1019.66 1019.74 1019.54 1019.61 1019.72 1019.80 1019.90 1020.07 1020.10
1009.77 1010.04 1010.21 1010.36 1010.64 1011.01 1011.43 1011.79 1012.17 1012.54 1012.60 1012.90 1013.45 1013.96 1014.28 1014.54 1014.81 1015.10 1015.37 1015.70 1016.17 1016.49 1016.61 1016.87 1017.03 1017.30 1017.70 1018.21 1018.69 1019.10 1019.33 1019.58 1019.83 1019.96 1020.06 1019.94 1019.90 1019.90 1020.04 1020.26 1020.46 1020.41 1020.44
1010.09 1010.20 1010.45 1010.47 1010.77 1011.16 1011.55 1011.92 1012.27 1012.58 1012.84 1012.88 1013.26 1013.97 1014.35 1014.72 1015.21 1015.34 1015.65 1015.88 1016.19 1016.40 1016.86 1017.23 1017.49 1017.43 1017.79 1018.24 1018.68 1019.06 1019.42 1019.86 1020.02 1020.18 1020.19 1020.09 1020.14 1020.16 1020.45 1020.66 1020.92 1020.92 1020.97
1009.72 1009.95 1010.38 1010.72 1010.87 1011.13 1011.46 1011.86 1012.31 1012.66 1013.06 1013.11 1013.18 1013.63 1014.50 1015.02 1015.34 1015.68 1015.91 1016.05 1016.35 1016.65 1016.78 1017.19 1017.55 1017.82 1018.25 1018.80 1019.29 1019.66 1020.02 1020.27 1020.38 1020.41 1020.32 1020.19 1020.29 1020.42 1020.71 1021.10 1021.33 1021.39 1021.33
1008.74 1009.41 1009.82 1010.24 1010.53 1010.70 1011.17 1011.67 1012.26 1012.50 1012.87 1013.27 1013.32 1013.54 1014.35 1015.27 1015.49 1015.82 1016.09 1016.29 1016.52 1016.84 1017.19 1017.39 1017.77 1018.18 1018.59 1019.02 1019.61 1020.00 1020.37 1020.62 1020.75 1020.73 1020.65 1020.52 1020.41 1020.60 1020.98 1021.40 1021.64 1021.60 1021.67
1008.69 1009.01 1009.29 1009.75 1010.21 1010.64 1010.70 1011.08 1011.63 1012.16 1012.56 1012.99 1013.06 1013.40 1014.12 1015.06 1015.57 1015.98 1016.19 1016.53 1016.75 1016.93 1017.32 1017.66 1018.04 1018.44 1018.84 1019.28 1019.64 1020.18 1020.59 1020.83 1020.99 1021.09 1020.95 1020.78 1020.70 1020.81 1021.15 1021.51 1021.78 1021.95 1022.04
1008.22 1008.52 1008.84 1009.10 1009.37 1009.78 1010.34 1010.91 1011.29 1011.70 1012.06 1012.52 1012.89 1013.19 1013.67 1014.46 1015.20 1015.71 1016.12 1016.48 1016.92 1017.13 1017.31 1017.71 1018.06 1018.46 1018.96 1019.46 1019.90 1020.24 1020.77 1021.08 1021.26 1021.43 1021.44 1021.31 1021.22 1021.11 1021.29 1021.73 1022.06 1022.28 1022.41
1007.23 1007.47 1007.53 1008.14 1008.81 1009.29 1009.23 1009.53 1010.03 1010.57 1011.17 1012.03 1012.67 1012.91 1013.30 1013.82 1014.60 1015.29 1015.83 1016.36 1016.81 1016.92 1017.27 1017.56 1017.98 1018.55 1019.03 1019.51 1020.21 1020.59 1020.97 1021.35 1021.54 1021.74 1021.83 1021.76 1021.60 1021.50 1021.75 1022.26 1022.43 1022.50 1022.66
1005.42 1006.38 1007.27 1007.74 1008.12 1008.24 1008.41 1008.74 1009.06 1009.43 1009.85 1010.74 1011.90 1012.80 1013.24 1013.76 1014.28 1014.97 1015.64 1016.10 1016.54 1016.88 1017.13 1017.57 1018.08 1018.68 1019.21 1019.61 1020.32 1020.93 1021.26 1021.60 1021.87 1022.06 1022.17 1022.22 1022.24 1022.23 1022.43 1022.68 1022.93 1022.97 1023.05
1005.06 1005.39 1005.85 1006.64 1007.30 1007.86 1008.04 1008.50 1008.89 1009.26 1009.37 1009.95 1010.86 1011.96 1013.00 1013.51 1014.21 1015.04 1015.34 1015.73 1016.19 1016.76 1017.15 1017.64 1018.08 1018.91 1019.51 1019.92 1020.47 1020.97 1021.54 1021.94 1022.21 1022.40 1022.58 1022.73 1022.85 1022.98 1023.10 1023.28 1023.41 1023.49 1023.56
1003.64 1004.38 1004.94 1005.44 1005.97 1006.97 1007.98 1008.54 1008.92 1009.16 1009.25 1009.44 1010.15 1010.73 1011.77 1012.85 1013.50 1014.42 1015.16 1015.31 1015.80 1016.54 1017.14 1017.58 1018.15 1018.47 1019.61 1020.32 1020.78 1021.25 1021.72 1022.16 1022.45 1022.58 1022.84 1023.06 1023.27 1023.55 1023.60 1023.71 1024.03 1024.09 1024.12
1005.01 1005.50 1005.15 1005.14 1005.75 1006.60 1007.64 1008.28 1008.59 1008.81 1008.97 1008.74 1009.27 1009.97 1010.81 1011.64 1012.38 1013.18 1014.33 1014.93 1015.38 1016.07 1016.97 1017.55 1018.07 1018.54 1019.27 1020.13 1020.86 1021.87 1022.14 1022.42 1022.60 1022.84 1023.09 1023.24 1023.54 1023.86 1023.98 1024.20 1024.59 1024.70 1024.68
1004.09 1004.37 1004.27 1005.03 1004.95 1005.40 1006.14 1006.69 1007.34 1007.10 1007.64 1008.22 1008.70 1008.87 1009.73 1011.06 1011.64 1012.25 1013.96 1014.06 1014.82 1015.34 1016.03 1017.01 1017.96 1018.51 1019.50 1020.17 1021.18 1022.52 1022.93 1022.95 1023.10 1023.18 1023.22 1023.51 1023.69 1024.05 1024.29 1024.55 1024.90 1025.15 1025.25
1004.70 1004.51 1004.65 1004.51 1004.60 1004.96 1005.23 1005.33 1006.18 1006.72 1007.50 1007.69 1008.16 1008.49 1008.95 1009.55 1010.68 1011.40 1012.57 1013.10 1014.44 1014.91 1015.70 1016.34 1017.03 1018.38 1018.94 1019.38 1020.30 1021.65 1022.87 1023.39 1023.33 1023.49 1023.54 1023.61 1023.91 1024.23 1024.49 1024.75 1025.08 1025.49 1025.83
1006.39 1005.41 1004.21 1004.11 1004.16 1004.25 1004.82 1006.06 1006.46 1006.56 1007.17 1007.77 1007.93 1008.01 1008.20 1008.73 1009.48 1010.36 1011.65 1012.02 1013.00 1013.79 1014.77 1015.33 1016.06 1016.99 1018.05 1019.05 1018.97 1019.68 1021.64 1022.16 1022.84 1023.52 1023.66 1023.81 1024.14 1024.49 1024.62 1024.76 1025.13 1025.60 1026.01
1007.03 1006.18 1004.85 1004.14 1003.86 1003.89 1004.13 1004.24 1004.57 1004.78 1005.45 1005.46 1006.30 1007.34 1007.72 1008.18 1009.03 1009.67 1010.36 1011.25 1012.41 1013.00 1013.91 1014.57 1015.21 1015.92 1016.77 1018.14 1018.99 1018.92 1019.03 1019.80 1021.74 1023.29 1023.42 1023.75 1024.20 1024.49 1024.69 1024.85 1025.19 1025.72 1026.17
1007.31 1007.00 1006.18 1004.94 1004.14 1003.54 1003.55 1003.30 1003.76 1004.11 1004.79 1005.56 1005.77 1006.21 1006.97 1007.58 1008.00 1008.86 1009.52 1010.35 1011.22 1012.01 1012.94 1013.76 1014.99 1015.37 1015.90 1017.07 1017.74 1018.97 1019.28 1019.54 1020.21 1021.35 1022.78 1023.45 1024.13 1024.49 1024.62 1024.75 1025.25 1025.84 1026.28
1007.78 1006.73 1005.93 1006.10 1005.27 1004.15 1003.19 1003.33 1003.22 1003.73 1003.82 1004.82 1005.39 1005.51 1006.10 1006.74 1007.38 1007.84 1008.63 1009.32 1010.28 1011.29 1012.01 1012.65 1014.02 1014.77 1015.53 1016.35 1017.26 1018.06 1018.55 1019.08 1019.93 1020.67 1021.93 1023.08 1023.81 1024.43 1024.88 1025.02 1025.20 1025.88 1026.38
Wind_Speed
10 18 21 17 15 15 15 16 17 18 18 19 20 19 19 18 18 17 16 15 15 16 15 14 13 13 13 13 13 13 13 12 13 16 18 18 17 15 15 16 10 7 13
13 16 24 20 17 16 16 16 16 17 17 18 18 18 18 17 16 16 15 14 14 15 15 13 12 12 12 12 12 11 12 11 13 14 16 19 18 15 15 14 12 9 11
17 14 16 21 18 18 17 17 17 17 17 18 17 17 17 17 16 15 14 14 14 14 14 13 12 12 12 12 11 11 10 11 15 16 15 9 11 14 14 15 14 13 11
17 15 17 21 19 19 18 18 18 17 17 17 17 16 16 16 15 15 13 13 13 14 12 12 11 12 12 11 9 14 18 18 18 18 9 9 10 14 13 14 14 17 16
18 15 16 20 17 16 17 18 18 18 16 16 16 16 16 15 14 14 13 13 13 14 12 11 11 13 13 11 13 17 20 20 19 14 8 6 6 12 14 14 15 19 18
13 12 17 15 16 17 16 16 17 17 16 15 15 16 16 16 15 15 13 11 12 11 11 10 12 15 13 11 17 19 19 20 16 9 6 11 7 13 15 15 17 19 20
16 13 15 17 17 18 17 17 17 17 16 15 15 16 17 17 16 14 13 13 12 12 11 9 12 16 15 16 16 18 18 17 9 7 7 6 7 14 18 18 19 20 20
12 13 13 16 18 18 18 16 15 16 16 14 14 16 17 18 15 15 14 15 15 14 12 9 11 15 16 19 18 16 16 16 10 9 7 6 13 14 16 17 19 17 17
7 12 12 14 14 15 14 13 13 15 15 14 13 14 15 15 15 16 16 16 15 15 14 13 13 15 19 19 19 17 16 16 7 6 7 4 14 16 16 16 17 18 16
6 8 11 10 11 11 10 12 12 13 15 16 14 13 13 13 14 15 15 15 15 13 13 14 16 18 21 21 20 19 18 16 6 6 4 5 14 16 17 17 17 17 16
6 9 9 11 10 9 8 9 12 14 14 16 15 14 10 6 6 11 10 15 15 14 12 12 13 15 20 20 20 19 15 4 5 4 3 12 14 16 18 17 16 16 16
14 12 11 11 11 9 8 7 6 8 8 8 9 9 6 4 5 6 8 13 14 13 13 13 15 18 14 7 8 12 4 5 4 4 3 12 14 15 16 16 15 15 16
14 12 13 12 11 12 9 6 4 5 6 4 8 9 8 4 3 3 3 4 4 8 3 6 7 4 7 6 6 5 5 4 3 3 5 11 13 16 15 16 15 15 15
17 15 14 13 13 12 8 8 8 7 6 5 7 10 8 5 4 4 3 4 4 4 5 4 4 6 7 7 8 8 6 4 3 3 5 8 11 15 14 15 14 15 15
16 18 17 16 16 14 13 9 8 9 7 7 7 8 8 8 7 5 4 4 4 4 4 4 5 6 8 8 6 9 7 6 6 3 2 8 6 12 14 15 14 14 15
16 19 20 20 17 16 16 16 12 10 10 7 7 8 10 9 8 7 5 5 4 5 4 5 5 6 6 8 7 7 7 5 6 5 3 4 8 10 15 13 13 13 14
19 18 19 20 19 20 19 15 12 11 11 10 9 9 10 8 8 8 6 5 5 4 6 5 4 5 7 6 8 6 6 6 5 6 4 4 6 15 15 13 12 12 13
17 22 21 18 20 19 17 13 11 10 10 10 9 9 11 9 9 7 7 6 5 5 5 5 6 5 5 7 6 6 5 5 5 5 5 4 4 4 10 13 12 12 12
22 20 21 22 22 20 16 11 11 12 10 10 10 10 14 12 10 9 7 7 8 6 5 7 3 7 6 5 6 5 5 5 5 5 5 6 6 5 3 13 13 12 11
12 12 15 16 18 18 12 10 9 9 11 11 12 11 15 13 13 11 8 8 9 7 5 4 7 3 5 7 7 5 3 3 4 4 5 5 5 5 5 6 5 6 12
10 16 21 19 19 14 14 14 13 15 12 11 11 15 16 14 14 13 7 8 8 10 11 10 5 8 3 5 6 4 4 3 2 3 4 4 5 5 6 5 4 3 4
8 13 17 19 18 17 14 15 12 11 10 10 8 12 15 17 16 14 13 11 11 9 9 10 9 4 4 8 5 4 4 0 1 2 2 5 5 4 5 5 6 5 5
19 13 16 18 19 18 17 8 4 5 3 4 9 10 12 15 16 16 13 11 13 11 11 13 11 12 5 5 11 6 4 5 4 2 3 2 6 4 4 6 6 6 5
14 18 15 15 16 15 17 14 16 15 11 12 11 10 11 14 14 15 16 14 13 9 11 11 9 9 7 13 4 1 2 6 5 2 1 3 3 5 6 5 6 5 5
11 12 16 17 12 14 14 16 14 15 13 8 8 12 13 13 16 15 14 14 13 10 11 12 10 7 6 9 8 3 2 3 3 4 4 3 1 1 3 6 6 5 5
9 10 10 17 19 16 14 15 15 19 15 9 10 11 11 11 11 13 13 13 13 12 12 11 10 10 7 6 4 4 4 4 4 4 3 3 5 2 1 2 5 5 4
Wind_Direction
187 159 165 165 159 143 136 133 131 129 129 128 126 125 126 129 129 128 126 122 118 113 107 103 99 94 91 88 86 86 88 82 82 84 75 68 64 60 54 48 69 71 69
146 162 157 162 155 147 145 140 135 132 130 129 128 128 130 130 130 129 126 121 117 113 110 105 98 90 86 82 84 87 91 93 91 85 79 70 63 59 59 54 56 54 77
145 157 154 159 156 151 152 147 140 138 136 135 133 132 133 133 132 130 128 125 121 117 112 103 92 83 79 78 81 82 105 119 76 75 73 70 60 52 49 43 54 47 86
140 151 160 166 159 156 156 151 145 144 141 141 138 137 137 136 136 137 136 130 124 115 109 100 88 77 70 73 77 87 98 91 83 75 63 58 61 58 56 55 47 59 56
144 147 159 166 159 158 159 152 148 147 146 145 143 142 139 141 140 138 132 130 130 118 114 102 92 81 72 60 102 100 95 91 83 77 72 64 57 60 61 61 58 58 58
139 138 158 162 159 157 163 157 152 147 148 147 147 145 142 141 139 134 132 126 115 125 123 114 99 85 74 73 96 99 93 91 84 78 65 69 67 72 74 71 66 58 59
149 149 159 161 161 160 166 164 156 150 148 149 147 146 143 143 139 131 123 130 132 130 128 116 98 92 86 101 99 98 94 92 88 81 75 66 70 77 74 74 67 60 57
148 148 159 163 163 163 167 165 159 152 148 148 144 143 142 150 140 133 133 143 143 139 129 115 98 96 102 110 105 97 98 100 90 83 69 67 81 82 78 73 71 64 52
149 153 162 167 167 163 165 162 161 157 151 148 147 145 143 142 142 140 140 148 149 146 138 129 107 100 108 110 108 104 101 94 77 77 81 69 90 89 83 75 74 71 65
140 160 167 168 165 164 168 163 162 161 155 151 149 147 143 141 146 145 147 152 154 150 145 141 126 124 125 120 113 106 102 93 82 84 83 93 90 89 83 79 73 70 68
167 175 176 171 167 161 160 173 168 166 162 155 149 153 141 145 146 150 153 157 157 152 147 135 118 124 128 127 124 119 109 98 94 88 87 98 98 95 89 84 78 75 70
186 184 179 178 172 161 167 166 170 173 174 169 161 151 131 132 141 148 159 160 159 157 148 136 122 126 118 120 118 105 86 92 91 93 91 106 106 101 98 90 83 78 73
182 179 185 180 176 171 168 156 165 175 169 166 160 146 137 144 153 144 146 156 147 151 134 125 115 110 124 120 110 108 106 98 88 79 92 107 111 105 108 90 83 80 75
190 191 183 181 179 183 173 172 169 171 166 175 166 150 149 157 157 159 159 155 158 145 145 138 122 126 120 112 121 117 109 108 102 88 97 96 117 116 109 97 90 83 79
190 194 192 184 184 181 180 180 176 178 176 178 169 167 161 165 170 163 166 157 167 150 151 148 133 130 129 124 121 126 121 115 107 94 84 90 102 119 113 97 96 91 84
197 197 190 190 189 187 187 183 183 181 171 171 181 178 173 170 171 174 167 171 173 167 160 151 149 137 134 131 123 126 122 112 108 104 90 89 73 84 101 103 95 93 88
200 190 195 196 195 195 195 189 183 186 176 174 176 181 178 173 172 168 172 171 179 175 154 141 125 108 121 125 125 122 124 122 117 110 102 84 70 85 98 100 92 91 89
193 195 191 193 197 197 199 193 191 191 181 178 175 171 180 177 171 172 176 181 169 161 154 147 141 118 128 138 134 136 129 123 119 115 104 93 81 80 105 103 96 91 88
202 198 197 195 196 198 201 199 200 199 192 188 179 176 177 179 175 176 188 186 163 161 166 159 135 139 138 129 135 124 129 133 137 132 124 114 112 105 100 109 99 92 87
220 229 217 198 197 194 198 199 200 199 206 191 187 185 184 185 180 178 186 180 168 159 149 150 155 107 133 144 130 103 94 125 136 141 138 128 122 119 109 95 99 99 95
200 203 205 210 209 184 193 193 200 206 198 198 198 184 174 186 184 175 195 166 175 174 171 166 142 145 108 123 107 73 43 59 117 155 148 144 142 140 123 119 115 88 89
259 217 219 216 205 202 202 202 209 205 220 211 195 185 189 181 184 185 185 173 181 167 164 167 160 139 122 171 136 128 138 71 133 182 152 167 159 148 137 130 123 113 98
4 306 228 222 217 214 209 210 233 166 124 191 201 192 191 187 186 188 186 176 176 175 178 175 165 172 146 196 176 142 140 193 127 140 189 195 157 164 154 144 132 128 124
4 2 306 241 228 222 209 194 193 201 195 203 195 198 190 187 191 187 179 173 180 179 178 181 174 168 147 181 197 68 96 140 157 151 177 163 176 176 173 166 144 140 140
13 11 13 356 251 229 214 213 202 204 216 206 192 182 184 183 179 182 186 180 176 178 177 172 176 162 166 172 177 154 112 82 99 136 162 153 103 188 181 162 151 149 153
356 17 38 6 10 316 219 225 208 219 206 190 195 183 181 180 180 180 179 177 180 179 172 167 172 164 152 148 137 151 156 157 160 139 117 121 150 147 173 161 148 154 162